Location: Newark
(41.6500°N, 71.4833°W)
Time: 10:29:46
(UTC+00:00)

Courier 1B - Pass Details

Date: 23 January 2020
Orbit: 962 x 1209 km, 28.3° (Epoch: 20 February)

Event Time Altitude Azimuth Distance (km) Brightness Sun altitude
Rises 10:29:13 0° 249° (WSW) 3,997 - -18.0°
Reaches altitude 10° 10:32:21 10° 239° (WSW) 3,068 - -17.4°
Exits shadow 10:32:54 12° 237° (WSW) 2,919 9.6 -17.3°
Maximum altitude 10:38:46 30° 182° (S) 1,999 9.2 -16.3°
Drops below altitude 10° 10:45:20 10° 125° (SE) 3,140 11.3 -15.1°
Sets 10:48:35 0° 115° (ESE) 4,105 12.5 -14.5°
